Flag for Latvia Weather past 2 weeks in Jelgava, Latvia

34 °F

Passing clouds.

Feels Like: 30 °F
Forecast: 30 / 39 °F
Wind: 5 mph from Southwest

Location: Riga Airport

Current Time: Dec 1, 2015 at 10:14:40 AM

Latest Report: Dec 1, 2015 at 8:50 AM

Visibility: N/A

Pressure: 29.33 "Hg

Humidity: 93%

Dew point: 32 °F

Location of JelgavaLocation

Historic Weather in Jelgava — Graph


Jelgava temperature yesterday

Maximum temperature yesterday: 43 °F (at 11:20 AM)
Minimum temperature yesterday: 36 °F (at 7:20 PM)
Average temperature yesterday: 39 °F

Past Weeks' High & Low Weather Summary

High50 °F (Nov 18, 2:20 PM)100% (Nov 16, 8:20 AM)30.04 "Hg (Nov 16, 8:20 AM)
Low19 °F (Nov 22, 7:50 AM)76% (Nov 21, 1:50 PM)29.18 "Hg (Nov 18, 12:50 PM)
Average36 °F95%29.63 "Hg
* Reported Nov 16 8:20 AM — Dec 1 8:20 AM, Jelgava, Weather by CustomWeather, © 2015

Note: Actual official high and low records may vary slightly from our data, if they occured in-between our weather recording intervals... More about our weather records


Jelgava weather history for previous 24 hours

Time TempWeatherWind HumidityBarometerVisibility
8:20 AM
Tue, Dec 1
34 °FPassing clouds.7 mph93%29.30 "HgN/A
7:50 AM34 °FClear.7 mph93%29.30 "Hg10 mi
7:20 AM34 °FClear.7 mph93%29.30 "Hg10 mi
6:50 AM36 °FClear.7 mph87%29.30 "Hg10 mi
6:20 AM36 °FPassing clouds.6 mph87%29.30 "HgN/A
5:50 AM36 °FPassing clouds.6 mph93%29.30 "HgN/A
5:20 AM36 °FPassing clouds.6 mph93%29.30 "HgN/A
4:50 AM36 °FPassing clouds.6 mph93%29.30 "HgN/A
4:20 AM36 °FPassing clouds.7 mph93%29.27 "HgN/A
3:50 AM36 °FPassing clouds.6 mph93%29.27 "HgN/A
2:50 AM36 °FPassing clouds.6 mph100%29.27 "HgN/A
1:50 AM37 °FPassing clouds.8 mph93%29.27 "HgN/A
1:20 AM36 °FPassing clouds.8 mph100%29.27 "HgN/A
12:20 AM37 °FPassing clouds.8 mph93%29.27 "HgN/A
11:50 PM
Mon, Nov 30
37 °FPassing clouds.8 mph93%29.27 "HgN/A
11:20 PM37 °FPassing clouds.8 mph93%29.27 "HgN/A
10:50 PM37 °FSprinkles. Passing clouds.6 mph93%29.27 "HgN/A
10:20 PM37 °FPassing clouds.9 mph93%29.27 "HgN/A
9:50 PM37 °FPassing clouds.7 mph93%29.27 "HgN/A
9:20 PM37 °FSprinkles. Passing clouds.8 mph93%29.27 "HgN/A
8:50 PM36 °FPassing clouds.9 mph100%29.27 "HgN/A
8:20 PM37 °FPassing clouds.9 mph93%29.27 "HgN/A
7:50 PM36 °FPassing clouds.8 mph100%29.27 "HgN/A
7:20 PM36 °FPassing clouds.8 mph100%29.24 "HgN/A
6:50 PM37 °FPassing clouds.7 mph93%29.24 "HgN/A
6:20 PM37 °FPassing clouds.7 mph93%29.24 "HgN/A
5:50 PM37 °FPassing clouds.7 mph100%29.24 "HgN/A
5:20 PM39 °FPassing clouds.7 mph93%29.24 "HgN/A
4:50 PM39 °FPassing clouds.8 mph93%29.24 "HgN/A
4:20 PM41 °FPassing clouds.10 mph87%29.24 "HgN/A
3:50 PM41 °FPassing clouds.9 mph87%29.24 "HgN/A
3:20 PM41 °FPartly sunny.8 mph87%29.24 "HgN/A
2:50 PM41 °FPartly sunny.10 mph87%29.24 "HgN/A
2:20 PM41 °FSprinkles. Partly sunny.7 mph87%29.21 "HgN/A
1:50 PM41 °FPartly sunny.7 mph87%29.21 "HgN/A
1:20 PM41 °FSprinkles. Broken clouds.8 mph87%29.21 "HgN/A
12:50 PM43 °FSprinkles. Broken clouds.8 mph76%29.21 "HgN/A
12:20 PM43 °FBroken clouds.12 mph81%29.21 "HgN/A
11:50 AM41 °FBroken clouds.12 mph81%29.21 "HgN/A
11:20 AM43 °FPartly sunny.12 mph76%29.21 "HgN/A
10:50 AM41 °FBroken clouds.13 mph87%29.18 "HgN/A
10:20 AM41 °FBroken clouds.14 mph87%29.21 "HgN/A
Weather by CustomWeather, © 2015

See weather overviewHow to use our weather pages